TimeMDT,TemperatureF,Dew PointF,Humidity,Sea Level PressureIn,VisibilityMPH,Wind Direction,Wind SpeedMPH,Gust SpeedMPH,PrecipitationIn,Events,Conditions,WindDirDegrees,DateUTC
12:48 AM,53.1,28.9,40,29.97,-9999.0,WSW,11.5,16.1,N/A,,Unknown,250,2013-10-02 06:48:00
1:48 AM,52.0,28.9,41,29.97,-9999.0,SW,6.9,-,N/A,,Unknown,230,2013-10-02 07:48:00
2:48 AM,53.1,28.0,38,29.96,-9999.0,WSW,11.5,-,N/A,,Unknown,250,2013-10-02 08:48:00
3:48 AM,50.0,30.9,48,29.97,-9999.0,West,6.9,-,N/A,,Unknown,280,2013-10-02 09:48:00
4:48 AM,48.0,33.1,56,30.00,-9999.0,WNW,5.8,-,N/A,,Unknown,300,2013-10-02 10:48:00
5:48 AM,46.0,34.0,63,30.01,-9999.0,WSW,3.5,-,N/A,,Unknown,250,2013-10-02 11:48:00
6:48 AM,39.9,32.0,73,30.05,-9999.0,West,5.8,-,N/A,,Unknown,270,2013-10-02 12:48:00
7:48 AM,39.0,30.0,70,30.09,-9999.0,WNW,5.8,-,N/A,,Unknown,300,2013-10-02 13:48:00
8:48 AM,46.0,28.9,51,30.09,-9999.0,West,5.8,-,N/A,,Unknown,260,2013-10-02 14:48:00
9:48 AM,52.0,28.9,41,30.09,-9999.0,West,10.4,-,N/A,,Unknown,280,2013-10-02 15:48:00
10:48 AM,55.9,28.9,36,30.09,-9999.0,West,12.7,18.4,N/A,,Unknown,270,2013-10-02 16:48:00
11:48 AM,57.0,27.0,32,30.07,-9999.0,NW,9.2,18.4,N/A,,Unknown,310,2013-10-02 17:48:00
12:48 PM,57.9,28.0,32,30.06,-9999.0,NW,12.7,19.6,N/A,,Unknown,320,2013-10-02 18:48:00
1:48 PM,59.0,28.0,31,30.04,-9999.0,NNW,10.4,18.4,N/A,,Unknown,340,2013-10-02 19:48:00
2:48 PM,60.1,27.0,28,30.03,-9999.0,NNW,8.1,-,N/A,,Unknown,340,2013-10-02 20:48:00
3:48 PM,59.0,25.0,27,30.03,-9999.0,NW,5.8,-,N/A,,Unknown,310,2013-10-02 21:48:00
4:48 PM,59.0,25.0,27,30.03,-9999.0,Variable,5.8,-,N/A,,Unknown,0,2013-10-02 22:48:00
5:48 PM,55.9,26.1,32,30.05,-9999.0,NNE,5.8,-,N/A,,Unknown,30,2013-10-02 23:48:00
6:48 PM,48.9,28.0,44,30.07,-9999.0,NE,8.1,-,N/A,,Unknown,40,2013-10-03 00:48:00
7:48 PM,46.0,28.9,51,30.08,-9999.0,NNE,8.1,-,N/A,,Unknown,30,2013-10-03 01:48:00
8:48 PM,46.0,28.0,50,30.06,-9999.0,North,6.9,-,N/A,,Unknown,10,2013-10-03 02:48:00
9:48 PM,46.0,28.0,50,30.05,-9999.0,North,3.5,-,N/A,,Unknown,10,2013-10-03 03:48:00
10:48 PM,45.0,30.0,56,30.05,-9999.0,Calm,Calm,-,N/A,,Unknown,0,2013-10-03 04:48:00
11:48 PM,42.1,30.9,65,30.05,-9999.0,Calm,Calm,-,N/A,,Unknown,0,2013-10-03 05:48:00